BREEZE-M R/B, 40365

Orbit data source: Space-Track

BREEZE-M R/B, 40365 is space debris in HEO originally from a launch on Sat, 27 Dec 2014 UTC launched from the Tyuratam Missile And Space Complex (TTMTR). Debris objects in space refer to the collection of defunct objects orbiting the Earth. Examples of debris include non-operational satellites, rocket bodies, and fragments generated from explosions, collisions, or faulty payload assembly.

Loading next visibility...
BREEZE-M R/B details
Identifier
40365, 2014-089B
Orbit
HEO
Last TLE update14 hours ago
Origin
Flag of CISKhrunichev (CIS)
ManufacturerKhrunichev
MissionSpacecraft
Bus & MotorBRIZ, Unknown motor
Mass~1,600 kg wet, 1,600 kg dry
Launch date (UTC)
2014-12-27 (10 years ago)
Launch vehicleUnknown
Launch site
Tyuratam Missile And Space Complex (TTMTR)
Object type
Payload
Rocket body
Debris
Shape & HBRCyl, 4 m
Radar Cross Section14.451 m², Large (>1 m²)

Expand to show TLE details & history

TLE from 14 hours ago
0 BREEZE-M R/B
1 40365U 14089B   24360.95144502 -.00000099  00000-0  00000-0 0  9994
2 40365  23.4724  73.7973 6089558 170.7056 209.8611  2.19527736 80002
Epoch: 2024-12-25T22:50Z
Definitive object data (Epoch: 2024-12-25T22:50:04.849Z)
Latitude-0.00001°
Longitude-3.67636°
Altitude33,073.645 km
Speed2.066 km/s
True Right ascension04h 55m 07s
True Declination0° 00' 00"
Sunlit
Object was in daylight at TLE epoch
Visualization TLE readout
Latitude16.79481°
Longitude40.05751°
Altitude17,673.795 km
Speed4.148 km/s
Apparent Right ascension07h 02m 21s
Apparent Declination7° 38' 30"
Sunlit
Object is in daylight
Visualization observer readout
Local Sidereal Time12:07:27
Azimuth267.093° W
Elevation15.408°
Doppler factor1
Orbital elements
Apogee altitude33,862.668 km
Perigee altitude3,402.078 km
Semi-major axis25,010.51 km
Eccentricity0.6089558
Inclination23.4724°
RAAN73.7973°
Arg. of periapsis170.7056°
True anomaly189.27327°
Mean anomaly209.8611°
Eccentric anomaly198.68397°
Mean motion0.54873 °/min
BSTARUnknown
Orbital period656.06 mins
Loading maneuver chart data...
Loading historical data...
Loading historical data...
Loading historical data...
Loading historical data...
Loading historical data...
Loading historical data...
Loading historical data...
Other satellites on launch #89 in the year 2014 (2014-12-27 UTC)

BREEZE-M R/B Visibility forecast

Observer location: undefined°, undefined

Span
Click to sort rows by Start time (UTC) header in descending order
Start Az.
Max El. time (UTC)
Max El. Az.
Max El.
End time (UTC)
End Az.
89 mins2024-12-26 12:45:53.427Z267.064° W2024-12-26 13:57:53.427Z203.727° SW36.903°2024-12-26 14:14:53.427Z133.13° SE
549 mins2024-12-27 02:49:53.427Z202.822° SW2024-12-27 11:32:53.427Z187.9° SSW41.286°2024-12-27 11:58:53.427Z111.672° ESE
|